Погода в Петропавловке

Россия / Воронежская область     50°05′23″N   40°53′06″E
темп.,
°C
ветер,
м/с
пор.,
м/с
влажн.,
%
обл.,
%
осадки,
мм/ч
давл.,
гПа
погр.,
м
17 мая, пн
пн1700:00+19вюв51256100 0.0 1010203
03:00+17вюв475411 0.0 101099
06:00+17вюв5146017 0.0 1010255
09:00+23вюв7154573 0.0 1009615
12:00+27юв8153547 0.0 10092033
15:00+28юв7133897 0.0 10082228
18:00+26вюв36502 0.0 1008164
21:00+20вюв495734 0.0 1008126
18 мая, вт
вт1800:00+18вюв485295 0.0 1008129
03:00+15юв3351100 0.0 100837
06:00+16вюв3556100 0.0 100888
09:00+21юв4643100 0.0 1008453
12:00+25ююв4638100 0.0 10071000
15:00+26ююв4640100 0.0 10071736
18:00+20юз71173100 0.2 1008395
21:00+15ю3488100 0.6 101071
19 мая, ср
ср1900:00+16в2290100 0.1 100942
03:00+15ю2392100 0.1 100944
06:00+15ююз128553 0.0 100991
09:00+20юз22619 0.0 1009644
12:00+24ююз124666 0.0 10081455
15:00+24ююв3445100 0.0 10072076
18:00+16зюз7107797 0.1 1008564
21:00+14юз369199 1.5 1009347
20 мая, чт
чт2000:00+14ю279196 0.0 1009397
03:00+11ю489646 0.0 1009252
06:00+13ю5109394 0.0 1010553
09:00+16ююз787779 0.8 1010976
12:00+16ююз677572 0.3 10121013
15:00+18ююз466266 0.5 10121369
18:00+18зюз456519 0.1 10131202
21:00+14ю228084 0.1 101419
21 мая, пт
пт2100:00+12ю22875 0.0 101519
03:00+12ююв338773 0.0 101530
06:00+13ююв358285 0.0 1015143
09:00+19ююв5763100 0.0 1015704
12:00+22ююв4553100 0.0 10141414
15:00+24ююв5748100 0.0 10142109
18:00+23ююв5761100 0.0 1014368
21:00+18юв227689 0.0 101516